Flag for Bermuda Weather past 2 weeks in Hamilton, Bermuda

Now
82 °F

Partly sunny.


Feels Like: 94 °F
Forecast: N/A
Wind: 20 mph from South

Location: Bermuda

Current Time: Aug 27, 2014 at 8:09:36 PM

Latest Report: Aug 27, 2014 at 6:55 PM


Visibility: 6 mi

Pressure: 30.04 "Hg

Humidity: 94%

Dew point: 81 °F

Location of HamiltonLocation

Historic Weather in Hamilton — Graph

°F

Hamilton temperature yesterday

Maximum temperature yesterday: 82 °F (at 12:55 PM)
Minimum temperature yesterday: 73 °F (at 7:01 AM)
Average temperature yesterday: 79 °F

Past Weeks' High & Low Weather Summary

 TemperatureHumidityPressure
High86 °F (Aug 14, 3:55 PM)100% (Aug 12, 8:55 PM)30.15 "Hg (Aug 12, 8:55 PM)
Low72 °F (Aug 24, 10:55 PM)66% (Aug 19, 3:55 PM)29.77 "Hg (Aug 25, 5:55 PM)
Average80 °F87%30.01 "Hg
* Reported Aug 12 6:55 PM — Aug 27 6:55 PM, Hamilton, Weather by CustomWeather, © 2014

Note: Actual official high and low records may vary slightly from our data, if they occured in-between our weather recording intervals... More about our weather records

Advertising

Hamilton weather history for previous 24 hours

 ConditionsComfort  
Time TempWeatherWind HumidityBarometerVisibility
6:55 PM
Aug 27
82 °FPartly sunny.20 mph94%30.04 "Hg6 mi
5:55 PM82 °FBroken clouds.20 mph94%30.04 "Hg6 mi
4:55 PM84 °FBroken clouds.20 mph89%30.04 "HgN/A
3:55 PM84 °FPartly sunny.21 mph84%30.07 "HgN/A
2:55 PM84 °FPartly sunny.21 mph89%30.07 "HgN/A
1:55 PM84 °FPartly sunny.20 mph89%30.07 "HgN/A
12:55 PM84 °FPartly sunny.20 mph89%30.09 "HgN/A
11:55 AM84 °FPartly sunny.20 mph89%30.09 "HgN/A
10:55 AM84 °FPartly sunny.22 mph89%30.09 "HgN/A
9:55 AM82 °FBroken clouds.17 mph94%30.09 "HgN/A
8:55 AM82 °FBroken clouds.18 mph89%30.09 "HgN/A
7:55 AM81 °FBroken clouds.20 mph94%30.07 "HgN/A
6:55 AM81 °FPartly cloudy.20 mph94%30.07 "HgN/A
5:55 AM81 °FPassing clouds.22 mph94%30.04 "HgN/A
4:55 AM81 °FPartly cloudy.18 mph94%30.04 "HgN/A
3:55 AM81 °FPartly cloudy.17 mph94%30.04 "HgN/A
2:55 AM81 °FPassing clouds.20 mph94%30.04 "HgN/A
1:55 AM81 °FMostly cloudy.18 mph94%30.07 "HgN/A
12:55 AM81 °FMostly cloudy.18 mph94%30.07 "HgN/A
11:55 PM
Aug 26
81 °FMostly cloudy.16 mph94%30.07 "HgN/A
10:55 PM81 °FOvercast.15 mph94%30.07 "HgN/A
9:55 PM81 °FScattered showers. Overcast.17 mph94%30.07 "HgN/A
8:55 PM81 °FScattered showers. Overcast.14 mph89%30.04 "HgN/A
Weather by CustomWeather, © 2014

See weather overviewHow to use our weather pages